Home > Time Zones > World Clock > Weather > U.S.A. > Erie > Past weeks

Flag for U.S.A. Weather past 2 weeks in Erie, Pennsylvania, U.S.A.

Now
61 °F

Sunny.


Feels Like: 61 °F
Forecast: 56 / 74 °F
Wind: 7 mph from South

Location: Erie International Airport

Current Time: Aug 28, 2015 at 9:49:32 AM

Latest Report: Aug 28, 2015 at 8:51 AM


Visibility: 10 mi

Pressure: 30.22 "Hg

Humidity: 78%

Dew point: 54 °F

Location of ErieLocation

Historic Weather in Erie — Graph

°F

Erie temperature yesterday

Maximum temperature yesterday: 69 °F (at 4:51 PM)
Minimum temperature yesterday: 57 °F (at 11:51 PM)
Average temperature yesterday: 63 °F

Past Weeks' High & Low Weather Summary

 TemperatureHumidityPressure
High91 °F (Aug 19, 3:51 PM)90% (Aug 26, 5:01 AM)30.22 "Hg (Aug 26, 5:01 AM)
Low54 °F (Aug 28, 4:51 AM)38% (Aug 19, 3:51 PM)29.73 "Hg (Aug 20, 3:51 AM)
Average71 °F67%30.02 "Hg
* Reported Aug 13 8:51 AM — Aug 28 8:51 AM, Erie, Weather by CustomWeather, © 2015

Note: Actual official high and low records may vary slightly from our data, if they occured in-between our weather recording intervals... More about our weather records

Advertising

Erie weather history for previous 24 hours

 ConditionsComfort  
Time TempWeatherWind HumidityBarometerVisibility
8:51 AM
Fri, Aug 28
61 °FSunny.7 mph78%30.22 "Hg10 mi
7:51 AM56 °FSunny.5 mph84%30.22 "Hg10 mi
6:51 AM54 °FClear.6 mph86%30.20 "Hg10 mi
5:51 AM54 °FClear.6 mph86%30.19 "Hg10 mi
4:51 AM54 °FClear.6 mph90%30.17 "Hg10 mi
3:51 AM55 °FClear.5 mph87%30.16 "Hg10 mi
2:51 AM55 °FClear.5 mph87%30.16 "Hg10 mi
1:51 AM56 °FClear.5 mph84%30.18 "Hg10 mi
12:51 AM56 °FClear.6 mph87%30.19 "Hg10 mi
11:51 PM
Thu, Aug 27
57 °FClear.3 mph83%30.19 "Hg10 mi
10:51 PM58 °FClear.6 mph84%30.18 "Hg10 mi
9:51 PM59 °FPassing clouds.5 mph84%30.19 "Hg10 mi
8:51 PM61 °FSunny.3 mph78%30.18 "Hg10 mi
7:51 PM65 °FSunny.5 mph66%30.16 "Hg10 mi
6:51 PM66 °FScattered clouds.7 mph63%30.16 "Hg10 mi
5:51 PM68 °FPassing clouds.8 mph59%30.15 "Hg10 mi
4:51 PM69 °FPartly sunny.7 mph57%30.14 "Hg10 mi
3:51 PM67 °FOvercast.7 mph63%30.15 "Hg10 mi
2:51 PM67 °FOvercast.7 mph61%30.17 "Hg10 mi
1:51 PM67 °FOvercast.7 mph61%30.18 "Hg10 mi
1:01 PM67 °FCloudy.8 mph66%30.19 "Hg10 mi
11:51 AM65 °FMostly cloudy.6 mph70%30.18 "Hg10 mi
10:51 AM67 °FBroken clouds.8 mph66%30.17 "Hg10 mi
9:51 AM65 °FCloudy.7 mph73%30.15 "Hg10 mi
Weather by CustomWeather, © 2015

See weather overviewHow to use our weather pages